TimeCST,TemperatureF,Dew PointF,Humidity,Sea Level PressureIn,VisibilityMPH,Wind Direction,Wind SpeedMPH,Gust SpeedMPH,PrecipitationIn,Events,Conditions,WindDirDegrees,DateUTC
12:00 AM,46.4,44.6,93,29.92,10.0,WNW,9.2,19.6,N/A,,Overcast,290,2013-02-13 06:00:00
12:07 AM,46.4,44.6,93,29.92,10.0,WNW,11.5,18.4,N/A,,Overcast,290,2013-02-13 06:07:00
12:28 AM,46.4,44.6,93,29.92,10.0,WNW,13.8,20.7,N/A,,Overcast,300,2013-02-13 06:28:00
12:42 AM,46.4,44.6,93,29.91,10.0,NW,15.0,21.9,N/A,,Overcast,310,2013-02-13 06:42:00
12:53 AM,46.0,44.1,93,29.91,10.0,NW,15.0,-,N/A,,Overcast,310,2013-02-13 06:53:00
1:15 AM,44.6,42.8,93,29.92,10.0,WNW,11.5,-,N/A,,Mostly Cloudy,290,2013-02-13 07:15:00
1:27 AM,44.6,42.8,93,29.93,10.0,WNW,8.1,17.3,N/A,,Mostly Cloudy,290,2013-02-13 07:27:00
1:37 AM,46.4,42.8,87,29.93,10.0,WNW,11.5,-,N/A,,Mostly Cloudy,300,2013-02-13 07:37:00
1:53 AM,46.0,43.0,89,29.94,10.0,WNW,11.5,-,N/A,,Overcast,300,2013-02-13 07:53:00
2:21 AM,44.6,42.8,93,29.94,10.0,WNW,10.4,-,N/A,,Overcast,300,2013-02-13 08:21:00
2:53 AM,45.0,42.1,90,29.96,10.0,NW,9.2,-,N/A,,Overcast,310,2013-02-13 08:53:00
3:01 AM,44.6,42.8,93,29.96,10.0,NW,11.5,-,N/A,,Overcast,310,2013-02-13 09:01:00
3:23 AM,44.6,41.0,87,29.97,10.0,NW,8.1,-,N/A,,Overcast,310,2013-02-13 09:23:00
3:53 AM,45.0,41.0,86,29.98,10.0,WNW,6.9,-,N/A,,Overcast,300,2013-02-13 09:53:00
4:53 AM,44.1,39.9,85,30.01,10.0,West,6.9,-,N/A,,Overcast,280,2013-02-13 10:53:00
5:53 AM,44.1,39.9,85,30.02,10.0,WNW,9.2,-,N/A,,Overcast,300,2013-02-13 11:53:00
6:53 AM,42.1,37.0,82,30.05,10.0,NNW,9.2,-,N/A,,Overcast,330,2013-02-13 12:53:00
7:53 AM,43.0,37.0,80,30.07,10.0,NW,9.2,-,N/A,,Overcast,320,2013-02-13 13:53:00
8:53 AM,43.0,37.0,80,30.10,10.0,NW,6.9,-,N/A,,Overcast,310,2013-02-13 14:53:00
9:53 AM,45.0,37.0,74,30.12,10.0,NW,8.1,-,N/A,,Overcast,320,2013-02-13 15:53:00
10:53 AM,46.0,37.0,71,30.13,10.0,NNW,9.2,-,N/A,,Mostly Cloudy,340,2013-02-13 16:53:00
11:53 AM,46.0,37.0,71,30.11,10.0,NW,8.1,-,N/A,,Overcast,310,2013-02-13 17:53:00
12:36 PM,46.4,37.4,71,30.10,10.0,NW,9.2,16.1,N/A,,Overcast,310,2013-02-13 18:36:00
12:53 PM,46.9,37.9,71,30.10,10.0,NNW,10.4,-,N/A,,Overcast,330,2013-02-13 18:53:00
1:53 PM,48.0,37.0,66,30.07,10.0,NW,9.2,-,N/A,,Overcast,310,2013-02-13 19:53:00
2:50 PM,46.4,37.4,71,30.06,10.0,NW,9.2,-,N/A,,Overcast,310,2013-02-13 20:50:00
2:53 PM,48.0,37.0,66,30.06,10.0,NW,8.1,-,N/A,,Overcast,320,2013-02-13 20:53:00
3:53 PM,46.9,37.0,68,30.07,10.0,NW,6.9,-,N/A,,Overcast,320,2013-02-13 21:53:00
4:34 PM,48.2,37.4,66,30.06,10.0,NW,6.9,-,N/A,,Overcast,310,2013-02-13 22:34:00
4:53 PM,46.9,36.0,66,30.07,10.0,WNW,8.1,-,N/A,,Overcast,290,2013-02-13 22:53:00
5:11 PM,44.6,35.6,71,30.07,10.0,Calm,Calm,-,N/A,,Scattered Clouds,0,2013-02-13 23:11:00
5:53 PM,45.0,35.1,68,30.07,10.0,Calm,Calm,-,N/A,,Clear,0,2013-02-13 23:53:00
6:53 PM,39.0,34.0,82,30.06,10.0,Calm,Calm,-,N/A,,Clear,0,2013-02-14 00:53:00
7:53 PM,39.9,35.1,83,30.07,10.0,Calm,Calm,-,N/A,,Clear,0,2013-02-14 01:53:00
8:53 PM,39.0,34.0,82,30.08,10.0,Calm,Calm,-,N/A,,Clear,0,2013-02-14 02:53:00
9:53 PM,39.0,34.0,82,30.10,10.0,SW,3.5,-,N/A,,Clear,230,2013-02-14 03:53:00
10:53 PM,37.9,34.0,86,30.09,10.0,SSW,3.5,-,N/A,,Clear,200,2013-02-14 04:53:00
11:53 PM,39.0,35.1,86,30.09,10.0,SW,4.6,-,N/A,,Clear,230,2013-02-14 05:53:00